Location: Unspecified
(41.1637°N, 24.2901°E)
Time: 11:03:55
(UTC+02:00)

ISS - Pass Details

Date: 11 May 2026
Orbit: 414 x 424 km, 51.6° (Epoch: 12 May)

Event Time Altitude Azimuth Distance (km) Brightness Sun altitude
Rises 21:43:30 0° 278° (W) 2,347 0.8 -20.7°
Reaches altitude 10° 21:46:02 10° 298° (WNW) 1,487 0.0 -21.0°
Maximum altitude 21:48:27 18° 344° (NNW) 1,086 -0.9 -21.3°
Drops below altitude 10° 21:50:52 10° 31° (NNE) 1,492 -0.7 -21.5°
Sets 21:53:26 0° 51° (NE) 2,358 0.1 -21.8°
